CDPK1: Cedar Creek Nr Cedar Point, KS

Data processed at Thu May 23 2019 23:50


All information presented herein is the property of the government of the United States of America and may be revised or deleted at any time without prior notice.
Dissemination of this information without the expressed written consent of the Public Affairs Office, Tulsa District U.S. Army Corps of Engineers is strictly prohibited.
These data are gathered electronically and, as presented, have not undergone any form of quality control. These data are not guaranteed to be valid or correct.
Go to home page.
Go to station list.
Go to home page.

Downstream station:


Previous Day
Next Day
Current Day
    
SHEF ID:       CDPK1     CEDAR C NR CEDAR POINT, KS
STATION TYPE:  
Regulating: Stage =    13.00, Flow =     4281

               PRECIP     STAGE  RIV-FLOW  BAT-LOAD
                   in        ft       cfs      volt
              Ccp-Rev   Ccp-Rev   Ccp-Rev   Ccp-Rev
(US/Central)
05/23 00:00      0.00      5.50       208     12.30
05/23 01:00      0.00      5.47       200     12.30
05/23 02:00      0.00      5.45       195     12.30
05/23 03:00      0.01      5.43       190     12.24
05/23 04:00      0.00      5.40       182     12.24
05/23 05:00      0.00      5.39       180     12.24
05/23 06:00      0.00      5.37       175     12.24
05/23 07:00      0.00      5.36       172     12.24
05/23 08:00      0.00      5.36       172     12.30
05/23 09:00      0.00      5.35       170     12.30
05/23 10:00      0.00      5.33       165     12.65
05/23 11:00      0.00      5.32       163     13.00
05/23 12:00      0.00      5.32       163     12.89
05/23 13:00      0.00      5.31       160     12.95
05/23 14:00      0.00      5.30       158     13.12
05/23 15:00      0.00      5.29       156     13.18
05/23 16:00      0.00      5.28       153     13.24
05/23 17:00      0.00      5.27       151     13.30
05/23 18:00      0.00      5.26       149     13.18
05/23 19:00      0.00      5.25       147     12.83
05/23 20:00      0.00      5.25       147     12.42
05/23 21:00      0.00      5.24       144     12.36
05/23 22:00      0.00      5.24       144     12.36
05/23 23:00      0.00      5.23       142     12.36